TimeEST,TemperatureF,Dew PointF,Humidity,Sea Level PressureIn,VisibilityMPH,Wind Direction,Wind SpeedMPH,Gust SpeedMPH,PrecipitationIn,Events,Conditions,WindDirDegrees,DateUTC
12:52 AM,19.0,-0.9,42,30.30,10.0,NNW,6.9,-,N/A,,Clear,330,2013-01-23 05:52:00
1:52 AM,19.9,-0.9,40,30.31,10.0,NW,9.2,-,N/A,,Clear,320,2013-01-23 06:52:00
2:52 AM,19.9,-0.9,40,30.32,10.0,NNW,8.1,19.6,N/A,,Clear,330,2013-01-23 07:52:00
3:52 AM,19.0,1.0,46,30.32,10.0,NW,10.4,17.3,N/A,,Clear,310,2013-01-23 08:52:00
4:52 AM,19.0,-0.0,43,30.32,10.0,NNW,9.2,-,N/A,,Clear,330,2013-01-23 09:52:00
5:52 AM,19.0,1.0,46,30.33,10.0,NNW,9.2,-,N/A,,Clear,330,2013-01-23 10:52:00
6:52 AM,14.0,3.9,64,30.34,10.0,Calm,Calm,-,N/A,,Partly Cloudy,0,2013-01-23 11:52:00
7:52 AM,16.0,3.9,59,30.35,10.0,Calm,Calm,-,N/A,,Scattered Clouds,0,2013-01-23 12:52:00
8:52 AM,19.9,3.9,50,30.36,10.0,Variable,6.9,-,N/A,,Scattered Clouds,0,2013-01-23 13:52:00
9:52 AM,23.0,3.0,42,30.37,10.0,WNW,9.2,-,N/A,,Partly Cloudy,290,2013-01-23 14:52:00
10:52 AM,24.1,1.0,37,30.35,10.0,Variable,6.9,-,N/A,,Scattered Clouds,0,2013-01-23 15:52:00
11:52 AM,25.0,1.0,36,30.32,10.0,West,9.2,-,N/A,,Scattered Clouds,270,2013-01-23 16:52:00
12:52 PM,26.1,-0.9,31,30.27,10.0,WSW,10.4,19.6,N/A,,Scattered Clouds,250,2013-01-23 17:52:00
1:52 PM,27.0,-0.0,31,30.25,10.0,WSW,11.5,23.0,N/A,,Mostly Cloudy,240,2013-01-23 18:52:00
2:52 PM,27.0,1.0,33,30.24,10.0,West,12.7,-,N/A,,Mostly Cloudy,260,2013-01-23 19:52:00
3:52 PM,28.0,-0.0,30,30.23,10.0,West,10.4,17.3,N/A,,Mostly Cloudy,260,2013-01-23 20:52:00
4:52 PM,27.0,-0.0,31,30.22,10.0,WSW,8.1,-,N/A,,Mostly Cloudy,250,2013-01-23 21:52:00
5:52 PM,25.0,1.9,37,30.22,10.0,WNW,4.6,-,N/A,,Mostly Cloudy,290,2013-01-23 22:52:00
6:52 PM,26.1,3.9,39,30.21,10.0,Calm,Calm,-,N/A,,Mostly Cloudy,0,2013-01-23 23:52:00
7:52 PM,26.1,3.9,39,30.19,10.0,Calm,Calm,-,N/A,,Scattered Clouds,0,2013-01-24 00:52:00
8:52 PM,26.1,5.0,41,30.18,10.0,NNE,4.6,-,N/A,,Scattered Clouds,20,2013-01-24 01:52:00
9:52 PM,26.1,10.0,51,30.18,10.0,Calm,Calm,-,N/A,,Overcast,0,2013-01-24 02:52:00
10:52 PM,27.0,10.0,49,30.18,10.0,NE,4.6,-,N/A,,Overcast,40,2013-01-24 03:52:00
11:52 PM,26.1,12.0,55,30.16,6.0,East,3.5,-,0.00,Snow,Light Snow,90,2013-01-24 04:52:00